Oxford, CT

7:54 AM EDT on August 24, 2017 (GMT -0400)
Waterbury-Oxford

Weather History for KOXC - November, 2010

Change the Weather History Date:

Tuesday, November 30, 2010

  Actual Average Record
Temperature  
Mean Temperature 42 °F -  
Max Temperature 50 °F 42 °F 60 °F (2001)
Min Temperature 33 °F 27 °F 15 °F (2013)
Degree Days  
Heating Degree Days 24    
Moisture  
Dew Point 37 °F    
Average Humidity 82    
Maximum Humidity 93    
Minimum Humidity 75    
Precipitation  
Precipitation 0.00 in - - ()
Sea Level Pressure  
Sea Level Pressure 30.41 in    
Wind  
Wind Speed 7 mph (SE)    
Max Wind Speed 17 mph    
Max Gust Speed 32 mph    
Visibility 10 miles    
Events Rain    
Averages and records for this station are not official NWS values.
T = Trace of Precipitation, MM = Missing Value Source: NWS Daily Summary

Daily Weather History Graph

Daily Weather History Graph

Search for Another Location

Airport or City:

Trip Planner

Search our weather history database for the weather conditions in past years. The results will help you decide how hot, cold, wet, or windy it might be!

Date:

Astronomy

Nov. 30, 2010 Rise Set
Actual Time 6:58 AM EST 4:23 PM EST
Civil Twilight 6:27 AM EST 4:54 PM EST
Nautical Twilight 5:53 AM EST 5:29 PM EST
Astronomical Twilight 5:19 AM EST 6:02 PM EST
Moon 1:07 AM EST (11/30) 12:56 PM EST (11/30)
Length of Visible Light 10h 27m
Length of Day
9h 25m
Waning Crescent, 29% of the Moon is Illuminated
Nov 30
Waning Crescent
Dec 5
New
Dec 13
First Quarter
Dec 21
Full
Dec 27
Last Quarter

Hourly Weather History & Observations

Time (EST) Temp. Windchill Dew Point Humidity Pressure Visibility Wind Dir Wind Speed Gust Speed Precip Events Conditions
12:15 AM 35.6 °F - 28.4 °F 75% 30.50 in 10.0 mi Calm Calm - N/A   Overcast
12:35 AM 35.6 °F - 30.2 °F 81% 30.50 in 10.0 mi Calm Calm - N/A   Overcast
12:55 AM 33.8 °F - 28.4 °F 81% 30.50 in 10.0 mi Calm Calm - N/A   Overcast
1:15 AM 35.6 °F 31.7 °F 28.4 °F 75% 30.49 in 10.0 mi ESE 4.6 mph - N/A   Overcast
1:35 AM 37.4 °F 34.9 °F 30.2 °F 75% 30.50 in 10.0 mi ESE 3.5 mph - N/A   Overcast
1:55 AM 37.4 °F 32.8 °F 30.2 °F 75% 30.49 in 10.0 mi East 5.8 mph - N/A   Overcast
2:15 AM 35.6 °F 30.7 °F 30.2 °F 81% 30.49 in 10.0 mi ESE 5.8 mph - N/A   Overcast
2:35 AM 35.6 °F 30.7 °F 30.2 °F 81% 30.49 in 10.0 mi ESE 5.8 mph - N/A   Overcast
2:55 AM 35.6 °F 30.7 °F 30.2 °F 81% 30.49 in 10.0 mi ESE 5.8 mph - N/A   Overcast
3:15 AM 37.4 °F 33.8 °F 30.2 °F 75% 30.49 in 10.0 mi SE 4.6 mph - N/A   Overcast
3:35 AM 37.4 °F 32.8 °F 30.2 °F 75% 30.48 in 10.0 mi ESE 5.8 mph - N/A   Overcast
3:55 AM 37.4 °F 32.1 °F 32.0 °F 81% 30.48 in 10.0 mi ESE 6.9 mph - N/A   Overcast
4:15 AM 37.4 °F 33.8 °F 33.8 °F 87% 30.48 in 10.0 mi ESE 4.6 mph - N/A   Overcast
4:35 AM 37.4 °F 32.8 °F 33.8 °F 87% 30.48 in 10.0 mi ESE 5.8 mph - N/A   Scattered Clouds
4:55 AM 37.4 °F 32.8 °F 33.8 °F 87% 30.48 in 10.0 mi SE 5.8 mph - N/A   Clear
5:15 AM 37.4 °F 32.1 °F 33.8 °F 87% 30.47 in 10.0 mi ESE 6.9 mph - N/A   Scattered Clouds
5:35 AM 39.2 °F 33.6 °F 35.6 °F 87% 30.46 in 10.0 mi ESE 8.1 mph - N/A   Overcast
5:55 AM 39.2 °F 35.0 °F 35.6 °F 87% 30.46 in 10.0 mi ESE 5.8 mph - N/A   Overcast
6:35 AM 41.0 °F 35.8 °F 35.6 °F 81% 30.46 in 10.0 mi SE 8.1 mph - N/A   Overcast
6:55 AM 41.0 °F 35.8 °F 35.6 °F 81% 30.46 in 10.0 mi SE 8.1 mph - N/A   Overcast
7:15 AM 41.0 °F 35.2 °F 35.6 °F 81% 30.46 in 10.0 mi SE 9.2 mph - N/A   Overcast
7:35 AM 42.8 °F 37.5 °F 35.6 °F 76% 30.46 in 10.0 mi SE 9.2 mph - N/A   Overcast
7:55 AM 42.8 °F 38.0 °F 37.4 °F 81% 30.47 in 10.0 mi SE 8.1 mph - N/A   Overcast
8:15 AM 42.8 °F 38.0 °F 37.4 °F 81% 30.47 in 10.0 mi SE 8.1 mph - N/A   Overcast
8:35 AM 42.8 °F 37.5 °F 37.4 °F 81% 30.46 in 10.0 mi ESE 9.2 mph - N/A   Overcast
8:55 AM 44.6 °F 38.8 °F 37.4 °F 76% 30.46 in 10.0 mi SSE 11.5 mph - N/A   Overcast
9:15 AM 44.6 °F 40.2 °F 37.4 °F 76% 30.46 in 10.0 mi SE 8.1 mph - N/A   Overcast
9:35 AM 44.6 °F 40.7 °F 39.2 °F 81% 30.47 in 10.0 mi SE 6.9 mph 16.1 mph N/A   Overcast
9:45 AM 44.6 °F 38.8 °F 37.4 °F 76% 30.47 in 10.0 mi SE 11.5 mph 20.7 mph N/A   Overcast
10:20 AM 44.6 °F 38.8 °F 39.2 °F 81% 30.46 in 10.0 mi SE 11.5 mph 20.7 mph N/A   Overcast
10:45 AM 44.6 °F 38.8 °F 39.2 °F 81% 30.44 in 10.0 mi SE 11.5 mph 20.7 mph N/A   Overcast
11:45 AM 46.4 °F 40.4 °F 41.0 °F 81% 30.42 in 10.0 mi SSE 13.8 mph 20.7 mph N/A   Overcast
12:55 PM 46.4 °F 40.4 °F 41.0 °F 81% 30.39 in 10.0 mi SSE 13.8 mph 27.6 mph N/A   Overcast
1:45 PM 46.4 °F 39.5 °F 41.0 °F 81% 30.37 in 10.0 mi SSE 17.3 mph 23.0 mph N/A   Overcast
2:45 PM 46.4 °F 40.4 °F 39.2 °F 76% 30.36 in 8.0 mi SSE 13.8 mph 23.0 mph N/A Rain Light Rain
3:45 PM 44.6 °F 38.8 °F 41.0 °F 87% 30.37 in 6.0 mi SSE 11.5 mph - N/A Rain Light Rain
4:46 PM 44.6 °F 38.8 °F 39.2 °F 81% 30.35 in 6.0 mi SE 11.5 mph - N/A Rain Light Rain
5:49 PM 44.6 °F 38.8 °F 39.2 °F 81% 30.33 in 10.0 mi SE 11.5 mph - N/A   Overcast
6:45 PM 44.6 °F 38.8 °F 42.8 °F 93% 30.31 in 10.0 mi SE 11.5 mph 17.3 mph N/A   Mostly Cloudy
7:45 PM 46.4 °F 40.4 °F 44.6 °F 93% 30.29 in 10.0 mi SE 13.8 mph 32.2 mph N/A   Overcast
9:35 PM 48.2 °F - 46.4 °F 93% 30.25 in 10.0 mi SE 13.8 mph 18.4 mph N/A   Overcast
9:55 PM 48.2 °F - 46.4 °F 93% 30.24 in 10.0 mi SE 15.0 mph 19.6 mph N/A   Overcast
10:15 PM 50.0 °F - 46.4 °F 87% 30.24 in 10.0 mi SE 15.0 mph 20.7 mph N/A   Overcast
10:35 PM 50.0 °F - 46.4 °F 87% 30.23 in 10.0 mi ESE 15.0 mph 21.9 mph N/A   Overcast
10:55 PM 50.0 °F - 46.4 °F 87% 30.23 in 10.0 mi ESE 16.1 mph 21.9 mph N/A   Overcast
11:15 PM 50.0 °F - 46.4 °F 87% 30.21 in 10.0 mi SE 13.8 mph 21.9 mph N/A   Overcast
11:35 PM 50.0 °F - 46.4 °F 87% 30.22 in 10.0 mi SE 12.7 mph 18.4 mph N/A   Overcast
11:55 PM 50.0 °F - 46.4 °F 87% 30.20 in 10.0 mi SE 11.5 mph 19.6 mph N/A   Overcast